Location: Berlin
(52.5200°N, 13.4050°E)
Time: 10:12:25
(UTC+01:00)

ISS - Visible Passes

Search period start: 18 January 2019 00:00
Search period end: 28 January 2019 00:00
Orbit: 404 x 407 km, 51.6° (Epoch: 18 January)

Date Brightness Start Highest point End Pass type
(mag) Time Alt. Az. Time Alt. Az. Time Alt. Az.
23 Jan -1.4 18:37:17 10° S 18:38:11 13° SSE 18:38:11 13° SSE visible
24 Jan -1.4 19:20:14 10° SW 19:21:17 18° SSW 19:21:17 18° SSW visible
25 Jan -2.4 18:28:43 10° SSW 18:31:27 24° SSE 18:31:37 24° SE visible
26 Jan -1.8 17:37:29 10° S 17:39:41 17° SE 17:41:53 10° ESE visible
26 Jan -2.3 19:12:29 10° WSW 19:14:34 33° SW 19:14:34 33° SW visible
27 Jan -3.0 18:20:42 10° SW 18:23:48 39° SSE 18:24:46 30° ESE visible
27 Jan -0.7 19:56:50 10° W 19:57:27 15° W 19:57:27 15° W visible
